Elkins, WV

2:13 PM EST on November 20, 2019 (GMT -0500)
Elkins-Randolph County

Weather History for KEKN - September, 2019

Change the Weather History Date:

Thursday, September 26, 2019

  Actual Average Record
Temperature  
Mean Temperature 62 °F 58 °F  
Max Temperature 75 °F 70 °F 88 °F (2017)
Min Temperature 50 °F 47 °F 30 °F (1950)
Degree Days  
Heating Degree Days 2 7  
Month to date heating degree days 12 97  
Since 1 July heating degree days 19 127  
Cooling Degree Days 0 1  
Month to date cooling degree days 118 44  
Year to date cooling degree days 789 470  
Growing Degree Days 12 (Base 50)    
Moisture  
Dew Point 54 °F    
Average Humidity 85    
Maximum Humidity 96    
Minimum Humidity 55    
Precipitation  
Precipitation 0.31 in 0.12 in 1.57 in (1902)
Month to date precipitation 0.48 3.18  
Year to date precipitation 38.19 35.99  
Snow  
Snow 0.00 in 0.00 in 0.00 in (2016)
Month to date snowfall 0.0 0.0  
Since 1 September snowfall 0.0 0.0  
Snow Depth 0.00 in    
Sea Level Pressure  
Sea Level Pressure 29.98 in    
Wind  
Wind Speed 2 mph ()    
Max Wind Speed 16 mph    
Max Gust Speed 21 mph    
Visibility 5.8 miles    
Events Fog , Rain    
T = Trace of Precipitation, MM = Missing Value Source: Averaged Metar Reports

Daily Weather History Graph

Daily Weather History Graph

Search for Another Location

Airport or City:

Astronomy

Sep. 26, 2019 Rise Set
Actual Time 7:10 AM EDT 7:10 PM EDT
Civil Twilight 6:43 AM EDT 7:36 PM EDT
Nautical Twilight 6:12 AM EDT 8:07 PM EDT
Astronomical Twilight 5:41 AM EDT 8:39 PM EDT
Moon 4:17 AM EDT (9/26) 6:20 PM EDT (9/26)
Length of Visible Light 12h 52m
Length of Day
11h 59m
Waning Crescent, 7% of the Moon is Illuminated
Sep 26
Waning Crescent
Sep 28
New
Oct 5
First Quarter
Oct 13
Full
Oct 21
Last Quarter

Hourly Weather History & Observations

Time (EDT) Temp. Dew Point Humidity Pressure Visibility Wind Dir Wind Speed Gust Speed Precip Events Conditions
12:51 AM 52.0 °F 48.9 °F 89% 29.94 in 10.0 mi Calm Calm - N/A   Clear
1:51 AM 52.0 °F 48.9 °F 89% 29.93 in 10.0 mi Calm Calm - N/A   Clear
2:51 AM 54.0 °F 50.0 °F 86% 29.91 in 10.0 mi Calm Calm - N/A   Overcast
3:51 AM 53.1 °F 50.0 °F 89% 29.89 in 10.0 mi Calm Calm - N/A   Overcast
4:51 AM 55.0 °F 50.0 °F 83% 29.88 in 10.0 mi Calm Calm - N/A   Overcast
5:51 AM 55.0 °F 51.1 °F 86% 29.87 in 10.0 mi Calm Calm - N/A   Overcast
6:51 AM 55.9 °F 51.1 °F 84% 29.89 in 10.0 mi Calm Calm - N/A   Overcast
7:51 AM 57.0 °F 51.1 °F 81% 29.91 in 10.0 mi Calm Calm - N/A   Overcast
8:28 AM 57.9 °F 52.0 °F 81% 29.94 in 1.8 mi SW 4.6 mph - 0.01 in Rain Heavy Rain
8:43 AM 57.0 °F 53.1 °F 87% 29.93 in 3.0 mi Variable 4.6 mph - 0.14 in Rain Light Rain
8:51 AM 57.9 °F 54.0 °F 87% 29.93 in 10.0 mi Variable 3.5 mph - 0.14 in   Overcast
9:07 AM 59.0 °F 55.0 °F 87% 29.94 in 1.8 mi SE 3.5 mph - 0.03 in Rain Heavy Rain
9:15 AM 59.0 °F 55.0 °F 87% 29.94 in 2.0 mi ENE 3.5 mph - 0.09 in Rain Rain
9:19 AM 59.0 °F 55.9 °F 90% 29.94 in 5.0 mi Variable 4.6 mph - 0.09 in Rain Light Rain
9:51 AM 61.0 °F 57.9 °F 90% 29.94 in 5.0 mi East 3.5 mph - 0.12 in Rain Rain
10:51 AM 63.0 °F 59.0 °F 87% 29.93 in 10.0 mi NW 3.5 mph - 0.01 in   Overcast
11:51 AM 64.9 °F 61.0 °F 87% 29.94 in 10.0 mi Calm Calm - 0.04 in   Overcast
12:51 PM 69.1 °F 61.0 °F 75% 29.95 in 10.0 mi West 5.8 mph - 0.00 in   Mostly Cloudy
1:19 PM 68.0 °F 60.1 °F 76% 29.96 in 10.0 mi West 8.1 mph - N/A   Mostly Cloudy
1:51 PM 69.1 °F 60.1 °F 73% 29.95 in 10.0 mi WSW 11.5 mph - N/A   Mostly Cloudy
2:51 PM 72.0 °F 61.0 °F 68% 29.93 in 10.0 mi WSW 6.9 mph - N/A   Scattered Clouds
3:51 PM 73.9 °F 60.1 °F 62% 29.92 in 10.0 mi Variable 6.9 mph - N/A   Partly Cloudy
4:51 PM 73.9 °F 59.0 °F 59% 29.93 in 10.0 mi West 8.1 mph - N/A   Clear
5:51 PM 73.9 °F 57.0 °F 55% 29.93 in 10.0 mi West 4.6 mph - N/A   Scattered Clouds
6:51 PM 68.0 °F 57.9 °F 70% 29.95 in 10.0 mi Calm Calm - N/A   Clear
7:51 PM 60.1 °F 57.0 °F 90% 29.98 in 10.0 mi Calm Calm - N/A   Clear
8:51 PM 57.9 °F 55.0 °F 90% 30.01 in 9.0 mi Calm Calm - N/A   Clear
9:24 PM 57.0 °F 54.0 °F 89% 30.02 in 1.0 mi Calm Calm - N/A   Clear
9:31 PM 57.0 °F 54.0 °F 89% 30.03 in 3.0 mi Calm Calm - N/A   Clear
9:36 PM 55.9 °F 54.0 °F 93% 30.03 in 1.5 mi Calm Calm - N/A   Clear
9:44 PM 55.0 °F 53.1 °F 93% 30.03 in 0.5 mi Calm Calm - N/A Fog Fog
9:51 PM 55.0 °F 53.1 °F 93% 30.04 in 4.0 mi Calm Calm - N/A   Clear
9:59 PM 55.0 °F 52.0 °F 89% 30.03 in 1.5 mi Calm Calm - N/A   Clear
10:02 PM 54.0 °F 52.0 °F 93% 30.03 in 0.8 mi Calm Calm - N/A   Mist
10:26 PM 54.0 °F 51.1 °F 90% 30.04 in 1.2 mi Calm Calm - N/A   Partly Cloudy
10:30 PM 54.0 °F 51.1 °F 90% 30.04 in 4.0 mi Calm Calm - N/A   Partly Cloudy
10:38 PM 53.1 °F 51.1 °F 93% 30.04 in 1.0 mi Calm Calm - N/A   Mist
10:51 PM 54.0 °F 51.1 °F 90% 30.05 in 0.5 mi Calm Calm - N/A Fog Fog
11:12 PM 53.1 °F 51.1 °F 93% 30.05 in 0.2 mi Calm Calm - N/A Fog Fog
11:24 PM 52.0 °F 50.0 °F 93% 30.05 in 1.0 mi Calm Calm - N/A   Mist
11:27 PM 53.1 °F 50.0 °F 89% 30.05 in 2.0 mi Calm Calm - N/A   Scattered Clouds
11:34 PM 52.0 °F 50.0 °F 93% 30.05 in 6.0 mi Calm Calm - N/A   Scattered Clouds
11:40 PM 53.1 °F 50.0 °F 89% 30.05 in 1.8 mi Calm Calm - N/A   Partly Cloudy
11:51 PM 52.0 °F 50.0 °F 93% 30.06 in 1.5 mi Calm Calm - N/A   Clear
11:54 PM 51.1 °F 48.9 °F 92% 30.05 in 3.0 mi Calm Calm - N/A   Clear